Regional Weather Roundup
Issued by NWS Charleston, WV

Home | Current Version | Previous Version | Text Only | Print | Product List | Glossary Off
Versions: 1 2 3 4 5 6 7 8 9 10 11 12 13 14 15 16 17 18 19 20 21 22 23 24 25 26 27 28 29 30 31 32 33 34 35 36 37 38 39 40 41 42 43 44 45 46 47 48 49 50

000
ASUS41 KRLX 130610
RWRRLX
West Virginia Regional Weather Roundup
National Weather Service Charleston WV
100 AM EST SAT FEB 13 2016

Note: "fair" indicates few or no clouds below 12,000 feet with no
significant weather and/or obstructions to visibility.

WVZ003-130700-
Northern Panhandle of West Virginia

CITY           SKY/WX    TMP DP  RH WIND       PRES   REMARKS
WHEELING       CLOUDY    15   4  61 W17G23    30.08R WCI  -1
$$

WVZ009-130700-
Northwest West Virginia

CITY           SKY/WX    TMP DP  RH WIND       PRES   REMARKS
PARKERSBURG      N/A     16   6  65 NW9       30.22R WCI   4
$$

WVZ006-130700-
Western West Virginia

CITY           SKY/WX    TMP DP  RH WIND       PRES   REMARKS
HUNTINGTON     CLOUDY    21  10  62 N16G24    30.26R WCI   7
$$

WVZ015-130700-
West Central West Virginia

CITY           SKY/WX    TMP DP  RH WIND       PRES   REMARKS
CHARLESTON     FLURRIES  21   5  50 NW21G31   30.21R WCI   5
$$

WVZ022-031-130700-
North Central West Virginia

CITY           SKY/WX    TMP DP  RH WIND       PRES   REMARKS
CLARKSBURG       N/A     16   4  59 W16       30.10R WCI   1
MORGANTOWN     MOCLDY    17   3  54 W8        30.07R WCI   7
$$

WVZ025-035-042-045-130700-
Southern West Virginia

CITY           SKY/WX    TMP DP  RH WIND       PRES   REMARKS
BECKLEY        LGT SNOW  18  13  80 W13G24    30.02R WCI   5
LOGAN          LGT SNOW  21  14  73 NW15G21   30.15R WCI   8
BLUEFIELD      MIX PCPN  18   9  68 W15G30    30.00R WCI   4
LEWISBURG      LGT SNOW  22  17  81 NW14G23   29.98S WCI  10
$$

WVZ047-130700-
Northern Mountains of West Virginia

CITY           SKY/WX    TMP DP  RH WIND       PRES   REMARKS
ELKINS         LGT SNOW  15   7  70 W22G35    30.02R WCI  -3
$$

WVZ052-130700-
Eastern Panhandle of West Virginia

CITY           SKY/WX    TMP DP  RH WIND       PRES   REMARKS
MARTINSBURG    MOCLDY    24  10  55 W12       29.97S
PETERSBURG     LGT SNOW  22  13  69 NW15      30.02R WCI   9
$$



USA.gov is the U.S. government's official web portal to all federal, state and local government web resources and services.